Flag for Germany Weather past 2 weeks in Meppen, Lower Saxony, Germany

Now
46 °F

Cool.


Feels Like: 42 °F
Forecast: 38 / 47 °F
Wind: 9 mph from West

Location: Meppen

Current Time: Dec 20, 2014 at 12:45:12 PM

Latest Report: Dec 20, 2014 at 12:00 PM


Visibility: 7 mi

Pressure: 29.91 "Hg

Humidity: 72%

Dew point: 38 °F

Location of MeppenLocation

Historic Weather in Meppen — Graph

°F

Meppen temperature yesterday

Maximum temperature yesterday: 53 °F (at 12:00 AM)
Minimum temperature yesterday: 43 °F (at 11:00 PM)
Average temperature yesterday: 49 °F

Past Weeks' High & Low Weather Summary

 TemperatureHumidityPressure
High54 °F (Dec 18, 6:00 PM)96% (Dec 6, 11:00 AM)30.34 "Hg (Dec 6, 11:00 AM)
Low34 °F (Dec 17, 12:00 AM)67% (Dec 11, 5:00 PM)29.23 "Hg (Dec 12, 12:00 PM)
Average41 °F87%29.86 "Hg
* Reported Dec 5 11:00 AM — Dec 20 11:00 AM, Meppen, Weather by CustomWeather, © 2014

Note: Actual official high and low records may vary slightly from our data, if they occured in-between our weather recording intervals... More about our weather records

Advertising

Meppen weather history for previous 24 hours

 ConditionsComfort  
Time TempWeatherWind HumidityBarometerVisibility
11:00 AM
Dec 20
46 °FPassing clouds.14 mph72%29.93 "Hg2 mi
9:00 AM45 °FQuite cool.9 mph74%29.94 "Hg7 mi
8:00 AM45 °FCool.8 mph74%29.95 "Hg6 mi
7:00 AM45 °FCool.8 mph75%29.96 "Hg6 mi
6:00 AM45 °FCool.9 mph74%29.97 "Hg6 mi
5:00 AM45 °FQuite cool.8 mph74%29.98 "Hg7 mi
3:00 AM45 °FCool.8 mph72%29.98 "Hg7 mi
2:00 AM45 °FQuite cool.8 mph73%29.97 "Hg7 mi
12:00 AM44 °FQuite cool.7 mph75%29.96 "Hg7 mi
11:00 PM
Dec 19
43 °FQuite cool.8 mph76%29.94 "Hg7 mi
9:00 PM44 °FQuite cool.7 mph75%29.93 "Hg7 mi
8:00 PM44 °FQuite cool.7 mph75%29.91 "Hg7 mi
7:00 PMN/APassing clouds.8 mphN/AN/A12 mi
6:00 PM45 °FQuite cool.6 mph76%29.86 "Hg7 mi
5:00 PM45 °FCool.7 mph74%29.84 "Hg7 mi
3:00 PM47 °FCool.6 mph70%29.80 "Hg7 mi
2:00 PM48 °FCool.6 mph67%29.77 "Hg8 mi
12:00 PM47 °FOvercast.6 mph84%29.75 "Hg19 mi
Weather by CustomWeather, © 2014

See weather overviewHow to use our weather pages